Hourly Data Report for September 04, 2020

LOURDES DE BLANC SABLON A
QUEBEC
Current Station Operator: NAVCAN

51°26'31.000" N
57°11'10.000" W
37.20 m
7040815
71808
YBX

Download Data

Hourly Data (September 2020)
Hourly Data Report for September 4, 2020
TIME Temp Definition
°C
Dew Point Definition
°C
Rel Hum Definition
%
Wind Dir Definition
10's deg

Wind Spd Definition
km/h
Visibility Definition
km
Stn Press Definition
kPa
Hmdx Definition


Wind Chill Definition


Weather Definition


00:00 12.7 12.7 100 21 8 0.2 100.65     Drizzle,Fog
01:00 12.3 12.3 100 21 6 0.2 100.63     Drizzle,Fog
02:00 12.0 12.0 100 21 12 0.2 100.61     Drizzle,Fog
03:00 11.9 11.9 100 16 4 0.2 100.60     Drizzle,Fog
04:00 11.9 11.9 100 9 7 0.2 100.48     Drizzle,Fog
05:00 12.1 12.1 100 10 7 0.2 100.55     Drizzle,Fog
06:00 12.8 12.8 100 9 8 0.2 100.45     Drizzle,Fog
07:00 13.5 13.5 100 6 9 4.8 100.47     Thunderstorms,Rain,Fog
08:00 13.5 13.5 100 6 10 4.8 100.30     Rain,Fog
09:00 14.7 14.2 97 10 17 9.7 100.16     Rain,Fog
10:00 16.1 15.5 96 12 27 6.4 100.06     Rain,Fog
11:00 16.5 15.7 95 12 22 6.4 99.87     Rain,Fog
12:00 17.1 16.8 98 13 32 2.4 99.71     Moderate Rain Showers,Fog
13:00 17.4 17.3 99 19 31 2.4 99.74     Rain,Fog
14:00 17.0 16.9 99 21 39 2.4 99.76     Rain,Fog
15:00 16.2 16.1 99 22 50 0.8 99.79     Drizzle,Fog
16:00 14.7 14.7 100 23 40 0.2 99.88     Drizzle,Fog
17:00 14.2 14.1 100 23 32 0.2 99.96     Drizzle,Fog
18:00 13.8 13.8 100 23 28 0.2 100.04     Drizzle,Fog
19:00 13.2 13.2 100 24 27 0.4 100.15     Drizzle,Fog
20:00 13.0 13.0 100 23 27 0.4 100.21     Drizzle
21:00 13.1 13.1 100 24 23 0.2 100.25     Drizzle,Fog
22:00 13.3 13.3 100 23 18 0.2 100.29     Drizzle,Fog
23:00 13.2 13.2 100 23 19 0.2 100.32     Drizzle,Fog

Notes on Data Quality.

Legend

  • E = Estimated
  • M = Missing
  • NA = Not Available*
  • [empty] = Indicates an unobserved value
Date modified: